Theta_e
349 347 351 352 351 352 351 351 345 342 342 343 342 340 337 334 335 335 338 343 344 346 349 347 346 350 351 350 345 350 349 351 351 351 351 346 346 348 347 349 348 348 347
346 346 351 350 351 351 351 350 352 345 342 341 340 339 337 335 336 335 340 345 346 351 352 352 352 353 352 348 352 351 348 347 349 350 352 352 348 348 347 348 350 350 349
346 346 350 346 345 350 351 350 351 351 349 341 341 339 337 339 339 341 344 344 343 351 352 350 348 350 350 348 346 348 351 348 348 346 346 348 350 349 353 348 344 347 349
346 349 348 345 350 351 351 350 350 352 351 346 342 341 344 340 339 342 347 350 347 352 351 350 340 337 339 336 338 345 344 347 344 344 345 348 350 350 348 349 345 343 346
347 349 353 345 350 350 350 350 350 351 351 349 348 347 344 338 345 344 344 345 345 350 350 345 341 340 340 337 336 338 340 341 343 342 343 346 346 349 341 345 347 346 345
346 348 350 351 351 350 348 350 351 351 350 347 342 338 339 343 352 348 347 348 339 339 342 348 343 340 339 337 336 336 336 337 340 340 338 342 342 344 345 337 347 346 346
346 345 349 353 350 351 351 350 351 351 349 343 338 341 343 348 349 351 351 350 347 338 339 347 349 340 339 340 338 337 337 337 337 340 338 333 337 343 337 335 347 342 344
344 347 348 353 350 351 352 352 352 352 352 348 351 353 352 352 352 351 351 351 351 350 348 344 346 348 344 340 343 341 339 341 337 336 337 332 332 338 339 341 348 347 343
346 348 349 350 354 353 352 353 353 353 353 352 351 353 352 352 352 352 351 350 350 349 350 348 349 347 348 347 344 342 347 347 341 337 337 337 333 338 336 345 347 347 348
349 349 350 351 353 353 352 354 354 353 353 353 352 351 352 352 353 352 350 351 351 349 348 348 348 346 346 348 348 348 347 345 342 339 337 339 334 339 338 345 344 345 347
353 352 351 351 352 352 353 355 354 354 354 353 353 352 352 350 351 350 350 347 351 351 348 341 341 344 348 350 344 348 348 343 340 341 338 336 337 339 335 343 343 345 348
353 353 352 351 351 351 351 351 349 350 347 348 350 346 345 349 347 346 347 348 351 348 344 344 345 343 345 345 346 347 347 340 340 341 340 336 335 334 339 340 345 343 341
349 351 351 349 347 346 343 344 346 347 347 346 346 346 346 344 344 346 343 344 342 345 346 347 346 345 344 345 341 342 344 342 341 341 341 338 336 335 334 338 345 342 336
349 348 348 344 342 343 343 345 346 344 343 343 344 343 344 346 346 346 342 344 344 345 345 344 341 339 341 342 341 344 344 342 340 342 342 341 341 335 333 337 348 345 338
347 345 343 344 342 342 343 343 345 341 343 346 345 346 347 347 345 344 344 342 345 344 346 345 343 338 338 337 338 342 344 345 341 342 342 343 342 342 336 338 346 349 348
346 345 343 343 343 343 347 350 347 344 347 348 348 348 348 348 348 346 345 346 347 345 343 345 346 345 343 341 342 343 344 344 343 343 343 344 343 343 343 338 346 350 349
349 347 347 346 345 347 351 351 352 349 349 349 349 349 348 348 349 347 346 346 342 341 346 347 347 347 346 345 345 345 346 344 344 344 344 344 344 343 343 343 341 346 347
351 350 351 351 349 349 351 351 351 350 351 350 349 349 349 350 350 348 347 346 345 343 344 343 345 347 345 345 346 344 346 344 344 345 345 344 344 338 337 341 342 342 342
351 351 350 351 351 351 351 352 351 351 351 350 349 349 349 351 348 349 348 347 347 343 344 342 345 346 345 346 344 345 346 345 345 345 344 344 343 338 336 335 337 340 346
350 350 350 351 351 351 352 352 351 350 350 351 349 348 350 350 349 348 348 345 345 349 347 347 347 347 345 343 342 344 346 347 344 346 345 345 343 342 340 337 335 334 336
348 349 349 348 348 351 352 350 350 350 351 349 349 349 349 349 348 348 348 347 349 349 347 348 348 345 343 345 345 343 345 346 346 346 347 346 346 344 344 341 338 338 338
348 348 349 349 348 350 350 351 352 351 351 350 349 349 348 349 348 348 347 348 350 350 350 350 348 348 347 344 345 344 343 345 345 347 347 347 346 346 345 345 343 341 339
348 348 349 349 349 350 350 350 351 349 350 351 348 350 349 348 349 349 347 349 349 350 350 350 349 349 350 347 347 343 343 345 341 344 347 346 346 346 346 346 346 345 345
348 349 350 350 350 350 351 349 349 349 351 350 349 348 349 349 349 349 348 348 348 350 349 347 348 345 348 348 347 346 345 343 341 340 343 345 345 345 345 346 346 346 346
349 349 349 348 349 350 350 350 350 350 349 349 349 348 347 349 349 349 349 349 348 348 348 349 347 349 349 350 348 347 346 346 346 340 340 341 341 344 345 344 342 344 347
349 349 349 349 348 347 351 351 351 350 350 349 349 348 346 349 350 349 349 348 347 347 348 347 350 349 350 351 349 348 347 346 345 343 343 342 342 341 342 342 342 341 341
Wind_Speed
23 24 21 20 19 19 19 20 24 28 29 31 30 27 26 25 23 22 21 21 20 19 17 18 18 19 20 20 19 19 19 19 18 17 18 17 16 16 15 17 16 16 14
34 27 22 20 20 19 19 20 22 26 28 28 28 28 26 23 21 20 19 19 19 18 17 17 18 18 19 20 19 19 17 18 18 15 14 15 15 15 14 16 16 15 14
34 29 24 21 21 20 21 21 21 22 23 27 27 26 25 21 19 17 16 16 15 14 15 16 17 17 17 18 18 18 18 16 16 15 14 16 14 13 14 13 14 14 13
35 30 26 23 21 20 21 21 21 21 21 23 23 22 20 19 16 14 13 13 12 12 12 12 13 15 15 13 14 14 13 13 13 13 13 16 16 12 12 12 12 12 11
33 31 27 23 22 20 21 21 21 20 20 20 19 18 17 15 13 12 12 12 11 11 10 10 12 14 11 12 11 11 10 9 9 10 10 11 13 12 11 10 10 10 9
33 30 27 23 22 20 20 19 19 18 18 17 16 16 15 14 13 12 13 12 11 10 9 9 8 9 9 8 8 9 9 8 8 9 8 8 8 8 11 10 9 8 7
32 29 26 23 22 20 19 19 17 16 17 16 14 12 12 12 12 12 11 11 10 10 10 9 8 9 9 10 9 9 12 11 11 8 9 9 8 8 8 10 9 6 7
31 29 26 22 20 20 20 19 17 16 14 13 12 11 10 11 11 10 10 11 11 11 11 11 10 11 10 10 9 7 8 10 12 13 12 9 10 10 10 11 9 7 6
30 28 26 24 21 20 20 20 19 15 14 13 12 12 11 11 10 10 11 11 11 11 10 10 10 11 10 11 11 9 9 11 10 13 19 16 9 13 13 11 11 9 8
29 28 26 25 23 22 20 18 18 17 16 15 13 12 12 11 10 10 10 10 10 10 9 8 9 9 10 9 8 9 10 10 12 9 14 18 14 16 15 13 11 10 8
25 27 27 27 25 24 22 19 17 17 17 16 14 14 13 12 11 10 11 10 10 10 9 7 8 8 8 7 7 8 9 13 12 11 9 10 19 15 16 14 12 11 10
26 30 29 29 27 26 24 22 21 19 18 17 16 14 13 12 12 11 11 10 11 11 9 6 7 8 8 8 7 7 10 11 12 12 11 10 19 16 16 15 14 14 13
35 33 32 30 28 27 26 24 22 20 18 16 16 14 13 13 12 12 11 11 13 12 11 9 8 9 9 9 9 9 9 11 11 11 12 12 14 21 17 17 15 14 13
29 33 33 31 30 28 25 24 23 21 18 16 15 15 16 14 15 13 12 12 11 14 13 13 11 11 10 10 11 9 10 12 12 12 13 12 13 19 21 20 17 17 15
30 34 34 33 32 29 26 24 22 22 19 17 16 15 16 15 11 11 15 13 10 10 16 14 13 14 13 13 13 11 10 14 14 13 14 13 14 16 19 22 19 20 17
32 34 34 35 33 31 29 25 23 22 20 18 17 17 15 15 12 11 11 14 14 12 13 14 12 13 15 14 13 12 12 12 14 14 16 15 16 20 22 24 21 21 20
34 33 35 34 34 32 30 26 24 23 22 18 20 18 17 16 14 16 9 11 10 11 10 10 10 11 12 14 14 15 14 14 14 18 20 18 16 19 22 25 25 23 24
27 36 37 36 35 33 32 29 26 23 23 20 17 21 18 17 15 14 11 11 10 10 11 10 10 10 10 11 13 15 16 15 17 20 15 15 18 18 19 24 28 28 27
36 38 38 38 36 36 33 30 26 25 24 21 17 18 20 16 15 15 12 11 9 14 11 9 10 8 8 11 13 12 15 18 15 14 15 17 16 17 16 17 24 29 27
37 40 38 38 35 35 33 29 24 23 22 21 21 19 20 19 16 15 13 9 11 10 14 12 10 9 11 10 12 13 14 15 17 15 17 18 19 19 17 15 16 20 24
30 32 41 42 37 37 32 29 24 25 22 19 19 19 18 19 19 16 14 12 13 11 12 9 10 8 9 7 6 10 12 12 14 17 19 24 24 23 21 20 20 21 21
36 37 38 39 37 38 34 32 28 28 24 21 21 20 19 20 22 19 17 14 11 11 11 11 12 9 10 12 5 2 1 6 15 14 18 21 25 25 23 24 24 24 25
35 38 40 41 40 39 36 34 25 23 21 20 21 20 20 20 22 23 18 15 13 12 9 13 14 14 10 9 13 4 2 4 2 8 17 21 22 24 25 26 27 27 28
27 24 22 23 22 26 36 34 32 27 23 26 24 22 19 20 21 22 20 18 16 13 14 11 11 13 15 8 13 14 6 2 1 3 7 15 19 21 20 22 24 27 26
22 26 24 24 29 16 29 36 34 28 27 22 23 23 22 21 22 21 21 21 17 16 15 12 12 11 10 9 11 6 13 8 9 3 3 3 13 21 23 24 23 24 25
18 22 18 16 20 13 24 36 33 30 28 23 21 24 24 23 22 22 20 22 19 17 15 15 12 12 10 12 10 12 9 6 7 6 4 7 7 8 16 16 18 18 24
Wind_Direction
173 166 161 155 148 140 135 136 136 137 134 136 138 137 136 135 131 128 123 120 115 118 121 126 122 117 114 110 111 113 119 123 120 117 116 114 113 115 113 112 106 105 102
162 166 166 161 151 144 138 137 142 141 141 143 145 143 140 140 135 133 127 121 121 119 123 120 121 123 121 121 118 115 117 122 121 119 119 117 115 115 116 121 112 111 111
160 164 167 165 156 150 144 142 144 145 146 147 145 144 144 139 138 136 131 128 129 127 129 130 130 128 129 127 126 127 128 134 136 129 128 135 121 120 115 127 125 115 108
160 163 166 170 160 153 149 147 148 149 151 150 149 148 146 146 147 142 140 140 141 141 141 139 135 136 138 137 131 129 130 133 136 134 135 138 136 127 128 124 118 125 122
161 164 166 170 163 158 156 154 154 156 154 153 151 152 153 159 156 160 161 158 161 154 161 161 157 152 145 139 136 142 141 146 152 153 142 146 142 136 132 130 123 120 131
162 168 164 169 166 163 159 155 157 160 158 156 156 156 157 158 158 169 169 175 179 179 191 188 196 197 204 198 184 183 179 174 180 191 181 148 154 148 141 134 131 132 135
164 168 167 170 170 165 161 160 163 162 162 160 162 166 170 171 179 178 177 187 196 202 212 209 210 219 208 201 212 220 203 211 213 205 207 210 188 176 166 144 139 141 144
165 168 170 171 173 171 168 166 168 174 170 172 172 177 184 184 187 189 194 204 212 214 217 223 222 229 224 224 217 208 207 219 215 222 226 196 197 199 191 161 156 165 158
168 169 171 173 176 174 176 175 176 179 181 183 189 189 195 196 199 202 206 210 215 215 216 217 218 222 225 226 216 212 214 217 228 224 223 219 204 195 190 176 178 184 188
172 171 172 173 177 178 178 182 183 184 190 193 197 200 204 205 213 220 216 212 212 209 211 213 212 218 222 221 213 207 217 223 239 231 218 218 207 192 192 186 191 193 198
173 177 177 174 176 178 181 181 186 188 194 199 203 209 210 210 211 223 225 213 211 215 217 216 220 220 220 220 217 200 207 222 230 227 211 209 198 196 200 197 197 201 212
178 183 183 182 181 182 185 184 191 194 200 202 209 213 217 215 218 220 220 223 217 218 224 213 217 223 218 223 210 212 218 231 235 236 244 236 210 213 207 211 208 216 222
185 183 188 187 185 186 188 189 194 199 205 213 216 218 219 221 217 218 221 221 224 220 219 226 222 227 231 232 223 224 226 246 248 245 245 230 217 214 223 219 217 222 223
185 187 190 190 188 191 193 196 199 201 209 215 221 219 219 221 224 231 230 221 229 223 222 225 234 235 233 234 235 233 239 246 250 252 246 239 228 225 218 217 219 227 231
189 190 194 195 195 194 197 201 203 204 207 212 216 219 222 225 226 228 226 226 240 239 226 227 233 235 237 242 245 245 240 242 245 248 253 246 234 234 229 219 221 234 234
197 196 195 200 201 199 199 201 202 204 207 213 220 222 224 223 233 217 226 233 246 241 227 228 231 234 237 241 246 251 234 245 246 260 260 254 245 236 235 232 228 232 237
198 197 198 199 202 202 201 203 206 211 213 217 225 229 228 223 232 230 241 236 243 228 225 214 226 229 236 238 246 251 246 239 250 253 254 258 252 243 239 235 233 232 237
193 201 199 200 203 207 210 205 209 213 220 218 228 229 227 224 232 226 249 247 242 221 216 219 220 229 234 229 238 241 240 237 248 258 246 240 244 242 241 237 236 238 242
200 205 204 202 207 210 215 211 212 219 213 212 217 219 221 224 224 227 247 259 246 220 215 228 227 229 236 238 238 240 233 235 241 254 230 237 244 244 244 239 235 236 238
207 205 205 201 207 206 210 207 213 207 209 217 220 220 215 222 227 233 241 244 233 229 226 235 235 246 246 262 253 246 233 235 228 238 240 241 244 245 244 242 236 229 232
208 201 200 196 204 204 206 203 204 203 205 207 212 217 218 218 221 227 230 233 234 233 223 224 232 240 233 242 246 248 241 232 228 233 240 241 247 246 245 244 243 241 239
205 210 203 204 205 203 206 205 207 212 210 217 219 225 225 221 228 228 228 235 239 236 240 225 220 229 242 232 219 165 333 255 238 235 236 245 246 250 248 248 247 247 247
197 204 206 204 205 205 206 206 208 218 217 220 220 219 222 224 235 228 229 237 236 235 231 219 222 221 242 223 212 190 131 226 281 232 232 237 244 246 244 248 251 252 252
205 199 195 196 199 203 208 207 208 210 211 223 225 223 218 223 227 223 227 235 231 225 227 236 216 233 227 214 215 225 227 139 129 320 247 239 237 238 235 237 246 252 252
185 184 187 193 197 214 221 214 213 218 222 228 229 227 223 224 221 226 228 226 227 226 234 226 219 229 228 235 216 209 220 220 235 200 280 259 247 244 242 245 250 247 251
161 160 173 217 210 223 236 225 218 218 224 228 225 225 221 222 221 223 224 226 229 238 237 230 232 234 240 246 243 237 208 175 203 191 232 268 256 267 230 240 245 246 246